Погода в Запорожье

Россия / Камчатский край     51°30′03″N   156°31′20″E
темп.,
°C
ветер,
м/с
пор.,
м/с
влажн.,
%
обл.,
%
осадки,
мм/ч
давл.,
гПа
погр.,
м
28 ноября, вс
вс2800:00−2ссз7794100 1.9 1001579
03:00−3ссз7782100 0.5 1002848
06:00−4с7886100 0.8 1003842
09:00−6с9118094 0.3 1005886
12:00−6ссв9137282 0.3 10071016
15:00−5ссв10157099 0.0 10061342
18:00−5ссв91472100 0.0 10071163
21:00−7св6118699 0.1 1008492
29 ноября, пн
пн2900:00−7св5885100 0.1 1009355
03:00−5ссв588198 0.1 1010351
06:00−5всв238139 0.1 1010188
09:00−3сз0386100 0.1 1011298
12:00−2ссз478194 0.4 1012581
15:00−2с357986 0.1 1012510
18:00−2ссз3478100 0.4 1013617
21:00−1с126173 0.1 1012933
30 ноября, вт
вт3000:00−1ююв3362100 0.1 1011444
03:00−1юв6870100 0.0 1007343
06:00−1юв81288100 0.6 1002390
09:00+1зюз91288100 3.5 1003985
12:00+1зсз111284100 4.1 10051097
15:00−1сз151782100 1.1 10121405
18:00−2сз111363100 1.7 10171964
21:00−2сз101262100 0.3 10191785
1 декабря, ср
ср100:00−1сз81057100 0.5 10211709
03:00−1сз6854100 0.1 10231681
06:00−1з3557100 0.3 10241045
09:00−2ююв3464100 0.1 1025500
12:00−1юв5665100 0.1 1025393
15:00−1вюв7971100 0.0 1021569
18:00−1юв71282100 0.5 1017554
21:00+1вюв111781100 0.2 1012382
2 декабря, чт
чт200:00+5юв132088100 1.2 1008434
03:00+6ююв152589100 0.9 1003572
06:00+6юв142688100 1.9 997728
09:00+6юв132089100 8.3 991361
12:00+7ююв172889100 15.9 988835
15:00+3ююв141985100 0.6 986822
18:00+2ююз111495100 1.8 986882
21:00+2ююз15227277 1.3 9861949